Home > Weather > Himeji > Past weeks

Flag for Japan Past Weather in Himeji, Japan — Yesterday and Last 2 Weeks

Now
86 °F

Broken clouds.


Feels Like: 88 °F
Forecast: 72 / 86 °F
Wind: 7 mph from North

Location: Osaka International Airport

Current Time: Aug 27, 2016 at 12:24:56 PM

Latest Report: Aug 27, 2016 at 12:00 PM


Visibility: N/A

Pressure: 29.68 "Hg

Humidity: 52%

Dew Point: 66 °F

Location of HimejiLocation

Past Weather in Himeji — Graph

°F

Himeji Temperature Yesterday

Maximum temperature yesterday: 95 °F (at 12:48 PM)
Minimum temperature yesterday: 79 °F (at 8:00 PM)
Average temperature yesterday: 88 °F

High & Low Weather Summary for the Past Weeks

 TemperatureHumidityPressure
High100 °F (Aug 22, 2:00 PM)100% (Aug 17, 5:00 AM)29.77 "Hg (Aug 17, 5:00 AM)
Low77 °F (Aug 14, 5:51 PM)32% (Aug 23, 4:00 PM)29.47 "Hg (Aug 16, 2:00 PM)
Average88 °F57%29.63 "Hg
* Reported Aug 12 11:00 AM — Aug 27 11:00 AM, Himeji, Weather by CustomWeather, © 2016

Note: Actual official high and low records may vary slightly from our data, if they occured in-between our weather recording intervals... More about our weather records

Advertising

Himeji Weather History for the Previous 24 Hours

Scroll right to see more
 ConditionsComfort  
Time TempWeatherWind HumidityBarometerVisibility
11:00 AM
Sat, Aug 27
82 °FBroken clouds.9 mph55%29.68 "HgN/A
10:00 AM81 °FBroken clouds.9 mph62%29.71 "HgN/A
9:00 AM81 °FPartly sunny.8 mph62%29.71 "HgN/A
8:00 AM79 °FPartly sunny.8 mph70%29.71 "HgN/A
7:00 AM79 °FBroken clouds.7 mph70%29.68 "HgN/A
6:00 AM77 °FBroken clouds.6 mph79%29.68 "HgN/A
5:00 AM77 °FPartly cloudy.8 mph79%29.68 "HgN/A
8:00 PM
Fri, Aug 26
79 °FRain showers. Fog.16 mph79%29.68 "Hg4 mi
7:00 PM84 °FPartly cloudy.10 mph66%29.65 "HgN/A
6:00 PM86 °FSprinkles. Scattered clouds.9 mph59%29.62 "HgN/A
5:46 PM88 °FSprinkles. Scattered clouds.12 mph55%29.62 "HgN/A
5:00 PM91 °FScattered clouds.7 mph41%29.59 "HgN/A
4:00 PM91 °FPartly sunny.8 mph41%29.59 "HgN/A
3:00 PM93 °FScattered clouds.6 mph39%29.59 "HgN/A
2:00 PM93 °FPassing clouds.8 mph39%29.59 "HgN/A
1:03 PM95 °FPartly sunny.5 mph39%29.62 "HgN/A
1:00 PM91 °FPartly sunny.5 mph44%29.62 "HgN/A
12:48 PM95 °FPartly sunny.6 mph41%29.62 "HgN/A
12:00 PM91 °FPartly sunny.8 mph41%29.65 "HgN/A
Weather by CustomWeather, © 2016

See weather overviewHow to use our weather pages